Location: San Pelegr�n
(42.1868°N, 0.0079°E)
Time: 04:38:14
(UTC+00:00)

Meteor 1-21 Rocket - Pass Details

Date: 24 January 2020
Orbit: 834 x 907 km, 81.2° (Epoch: 18 February)

Event Time Altitude Azimuth Distance (km) Brightness Sun altitude
Rises 17:41:44 0° 180° (S) 3,383 7.6 -7.4°
Reaches altitude 10° 17:44:08 10° 178° (S) 2,460 6.9 -7.8°
Maximum altitude 17:49:40 68° 96° (E) 920 4.2 -8.8°
Drops below altitude 10° 17:55:20 10° 15° (NNE) 2,522 6.4 -9.8°
Sets 17:57:49 0° 13° (NNE) 3,476 7.1 -10.2°
